Location: Chipping Ongar
(51.7000°N, 0.2500°E)
Time: 16:07:21
(UTC+00:00)

Daily predictions for brighter satellites

Satellite Brightness Start Highest point End
(mag) Time Altitude Azimuth Time Altitude Azimuth Time Altitude Azimuth
SL-16 R/B 4.3 16:21:32 10° NW 16:23:51 12° NNW 16:26:10 10° N
NOAA 11 4.2 16:19:53 10° SSE 16:25:18 78° ENE 16:30:46 10° NNW
USA 305 3.0 16:23:10 10° WNW 16:27:25 65° N 16:31:38 10° E
CZ-2C R/B 4.4 16:27:37 10° ENE 16:29:02 11° E 16:30:26 10° E
Cosmos 1842 Rocket 3.7 16:25:06 10° S 16:29:34 89° W 16:34:07 10° N
Cosmos 2219 Rocket 4.0 16:26:48 10° N 16:29:35 14° NNE 16:32:21 10° NE
SL-24 R/B - RUBIN 2 3.7 16:25:12 10° NW 16:29:50 83° SW 16:34:10 10° SE
Meteor 1-25 Rocket 4.2 16:24:24 10° N 16:30:00 72° ENE 16:35:37 10° SSE
Nadezhda 4 Rocket 4.2 16:24:54 10° N 16:31:16 87° W 16:37:37 10° S
Cosmos 1500 3.7 16:29:58 10° N 16:33:29 36° ENE 16:36:57 10° SE
H-2A R/B 4.1 16:30:22 10° S 16:33:50 41° W 16:37:21 10° NNW
Cosmos 1606 3.5 16:30:19 10° SSW 16:34:02 52° WNW 16:37:47 10° N
CZ-4B R/B 2.8 16:30:22 10° SSE 16:34:11 55° ENE 16:37:50 10° N
Cosmos 1464 Rocket 4.2 16:28:01 10° SSW 16:34:24 82° W 16:40:49 10° N
Cosmos 44 Rocket 3.5 16:29:35 10° NW 16:34:27 50° NE 16:39:09 10° ESE
COSMOS 2406 3.4 16:35:52 10° SSW 16:41:30 61° ESE 16:47:09 10° NE
Cosmos 468 Rocket 4.0 16:37:34 10° SSW 16:42:45 85° ESE 16:48:01 10° NNE
Meteor 1-31 Rocket 4.3 16:42:27 10° S 16:46:05 41° W 16:49:43 10° NNW
Cosmos 1428 Rocket 4.5 16:40:23 10° N 16:46:32 68° ENE 16:52:40 10° SSE
Cosmos 1092 Rocket 4.0 16:45:16 10° N 16:51:40 82° E 16:58:00 10° SSE
CZ-4B R/B 3.8 16:50:32 10° ESE 16:55:11 31° ENE 16:59:48 10° N
Meteor 2-21 4.4 16:49:10 10° N 16:55:15 70° ENE 17:01:17 10° SSE
USA 267 3.9 16:50:26 11° ENE 16:56:26 41° SE 17:02:31 10° SSW
CZ-2D R/B 3.9 16:53:49 10° SE 16:57:13 32° ENE 17:00:39 10° N
ATLAS CENTAUR R/B 3.0 16:48:08 10° SW 16:57:58 68° SSE 17:01:31 14° ENE
SL-16 R/B 4.5 16:53:55 10° N 16:58:36 23° NW 17:03:16 10° W
USA 306 2.9 16:55:30 10° WNW 16:59:46 73° NNE 17:03:51 11° E
Cosmos 1939 Rocket 2.8 16:55:46 10° SSE 16:59:50 69° ENE 17:03:52 10° N
Cosmos 1633 Rocket 3.4 16:56:15 10° N 17:00:25 40° ENE 17:04:34 10° SE
COSMO-SKYMED 1 4.2 16:59:10 14° ENE 17:00:40 16° E 17:03:21 10° SE
Cosmos 1666 3.0 16:58:40 10° N 17:02:14 42° ENE 17:05:46 10° SSE
Cosmos 1151 Rocket 3.7 16:58:30 10° SSE 17:02:24 33° E 17:06:22 10° NNE
Cosmos 2360 Rocket 3.2 16:59:10 10° NNW 17:03:56 26° NE 17:08:17 12° E
Cosmos 1782 2.8 17:00:29 10° S 17:04:24 59° E 17:08:20 10° NNE
ISS -1.0 17:02:21 10° W 17:05:00 21° SW 17:07:38 10° SSE
SeaSat 1 3.5 17:03:31 10° NNE 17:08:07 40° NW 17:12:43 10° WSW
SL-08 R/B 3.4 17:03:49 10° NNE 17:08:32 78° WNW 17:13:09 10° SSW
Cosmos 1763 Rocket 4.0 17:04:06 10° SW 17:09:07 60° WNW 17:14:15 10° NNE
PAYLOAD B 4.3 17:04:33 10° SE 17:09:59 54° ENE 17:15:26 10° N
Cosmos 1818 3.5 17:04:30 10° NW 17:10:02 82° NE 17:15:30 10° SE
YAOGAN 1 4.1 17:11:21 16° NE 17:11:21 16° NE 17:13:39 10° NNE
NOAA 12 4.5 17:07:14 10° S 17:12:33 70° WSW 17:17:51 10° NNW
Meteor 2-14 Rocket 4.5 17:08:25 10° NNW 17:14:33 87° W 17:20:38 10° S
ATLAS 5 CENTAUR R/B 2.6 17:07:35 10° NW 17:17:04 60° NNE 17:19:39 16° ESE
Cosmos 1536 4.4 17:14:32 10° NNE 17:16:30 18° NE 17:16:30 18° NE
Cosmos 2279 Rocket 4.1 17:12:32 10° SSE 17:18:31 52° E 17:24:30 10° NNE
CZ-4C R/B 4.5 17:15:42 10° N 17:19:17 39° WNW 17:22:40 10° SW
Cosmos 841 Rocket 3.4 17:14:10 10° SSW 17:19:20 84° ESE 17:24:31 10° NNE
Cosmos 2266 Rocket 4.4 17:13:18 10° N 17:19:20 41° ENE 17:25:20 10° SE
ERBS 3.3 17:16:38 10° WNW 17:19:32 30° N 17:20:46 23° NE
USA 307 2.8 17:16:04 10° WNW 17:20:21 80° NNE 17:23:32 17° ESE
CZ-4C R/B 3.3 17:13:50 10° NW 17:20:52 71° SW 17:29:10 10° SSE
Lacrosse 5 rocket 1.7 17:19:34 10° WNW 17:23:23 61° SW 17:27:25 10° SE
NOSS 3-4 (A) 4.4 17:18:32 10° NW 17:24:30 36° NNE 17:28:52 19° ENE
NOSS 3-4 (C) 4.4 17:18:39 10° NW 17:24:36 36° NNE 17:28:56 19° ENE
ATLAS 2AS CENTAUR R/B 3.8 17:20:10 10° WNW 17:26:57 33° N 17:31:18 19° NE
Cosmos 2322 Rocket 2.4 17:21:32 10° NNW 17:27:04 47° NE 17:32:34 10° SE
Cosmos 1933 Rocket 4.2 17:23:35 10° N 17:27:27 30° ENE 17:31:18 10° SE
COSMOS 2428 4.1 17:23:29 10° NNW 17:27:30 19° NNE 17:28:43 18° NE
Cosmos 2208 Rocket 4.3 17:23:40 10° S 17:28:51 48° ESE 17:32:51 17° NE
Cosmos 2150 Rocket 4.0 17:23:54 10° NNW 17:29:03 60° ENE 17:34:13 10° SE
Cosmos 1666 Rocket 3.5 17:25:35 10° N 17:30:03 90° NW 17:34:27 10° S
Cosmos 1980 Rocket 3.3 17:24:49 10° NW 17:30:15 49° WSW 17:35:38 10° S
AQUARIUS 4.3 17:26:42 10° S 17:31:11 77° WSW 17:35:42 10° NNW
USA 234 3.4 17:25:33 10° SE 17:32:06 79° SSW 17:38:41 10° WNW
Cosmos 1328 Rocket 3.8 17:28:09 10° SSE 17:32:25 47° E 17:36:01 14° NNE
Cosmos 1470 Rocket 3.7 17:29:15 10° N 17:33:38 52° ENE 17:38:01 10° SSE
Cosmos 1544 3.5 17:30:21 10° N 17:33:46 37° ENE 17:37:09 10° SE
Cosmos 1125 Rocket 3.5 17:30:04 10° NNW 17:35:17 63° ENE 17:40:31 10° SE
CORIOLIS 4.4 17:31:20 10° S 17:36:45 72° WSW 17:42:13 10° NNW
Cosmos 1812 2.6 17:34:20 10° S 17:38:11 83° E 17:41:44 12° NNE
PSLV R/B 3.7 17:35:32 10° SSE 17:39:15 84° WSW 17:43:03 10° NNW
H-2A R/B 1.9 17:34:58 10° SSE 17:40:04 80° ENE 17:45:05 10° NNW
Meteor 1-11 Rocket 3.9 17:35:10 10° N 17:40:39 50° ENE 17:46:14 10° SSE
Cosmos 1634 Rocket 4.2 17:34:36 10° SSW 17:40:57 77° WNW 17:47:19 10° N
Okean O Rocket 1.8 17:37:34 10° SE 17:41:52 49° ENE 17:46:11 10° N
Meteor 2-8 Rocket 4.5 17:36:24 10° S 17:42:25 59° E 17:48:29 10° NNE
ATLAS CENTAUR R/B 3.6 17:39:37 10° NW 17:42:36 17° N 17:44:13 14° NNE
USA 308 2.8 17:38:47 10° WNW 17:43:03 87° SSW 17:45:21 27° ESE
GEOS 3 Rocket 4.2 17:41:55 26° ENE 17:44:09 39° NNE 17:48:55 10° NW
SL-16 R/B 2.1 17:42:05 10° NNW 17:47:48 78° ENE 17:53:28 10° SE
Cosmos 2237 Rocket 4.0 17:45:47 10° N 17:48:46 14° NNE 17:49:04 14° NNE
SKYMED 2 3.9 17:47:47 32° NE 17:49:11 42° E 17:53:18 10° S
Cosmos 540 Rocket 4.3 17:46:26 10° SW 17:51:21 47° WNW 17:56:08 11° NNE
ARGOS 3.1 17:46:38 10° SSE 17:51:59 65° ENE 17:57:20 10° N
Cosmos 2082 Rocket 2.4 17:46:50 10° SW 17:52:30 72° WNW 17:56:57 17° NNE
H-2A R/B 4.4 17:56:25 15° N 17:56:25 15° N 17:57:15 10° N
SMAP 4.4 17:51:10 10° SSW 17:55:34 41° W 18:00:00 10° NNW
CZ-4 R/B 3.5 17:58:56 13° N 17:58:56 13° N 17:59:30 10° N
deb Chang Zheng 4 3.4 17:53:06 10° SSE 17:57:24 77° ENE 18:01:44 10° NNW
COSMOS 2455 3.2 17:54:48 10° SW 18:00:47 63° NW 18:04:54 21° NNE
Cosmos 1833 Rocket 4.0 18:01:00 10° WSW 18:06:07 35° NW 18:10:35 13° NNE
Feng Yun 1-1 Rocket 4.3 18:01:07 10° SE 18:06:55 60° ENE 18:12:38 10° N
USA 305 3.1 18:03:07 10° WNW 18:07:20 65° SSW 18:08:52 36° SE
Cosmos 2333 Rocket 2.7 18:02:13 10° NNW 18:07:35 37° NE 18:08:05 36° ENE
Cosmos 1356 Rocket 3.3 18:04:08 10° N 18:08:22 79° ENE 18:12:37 10° SSE
CZ-2C R/B 2.4 18:06:50 21° NNE 18:10:22 68° ESE 18:15:31 10° S
SL-16 R/B 4.3 18:08:43 10° N 18:10:47 12° NNE 18:11:02 12° NNE
Cosmos 2219 Rocket 2.9 18:10:12 10° NNW 18:15:05 34° NE 18:15:05 34° NE
Cosmos 1655 Rocket 4.0 18:09:45 10° N 18:16:11 86° W 18:22:33 10° S
Aureole 3 Rocket 3.8 18:14:10 10° SSE 18:18:51 55° E 18:25:28 10° NNE
Cosmos 1515 Rocket 3.4 18:15:05 10° S 18:19:31 77° E 18:20:26 54° NNE
Cosmos 921 Rocket 2.9 18:17:43 10° SSW 18:21:56 84° WNW 18:22:47 57° NNE
Spot 2 4.4 18:23:28 24° SSE 18:26:35 68° ENE 18:31:37 10° N
Cosmos 371 Rocket 3.4 18:29:47 10° NNW 18:33:50 56° NNE 18:33:50 56° NNE
CZ-4B R/B 3.9 18:30:20 10° S 18:35:33 51° W 18:40:45 10° NNW
Cosmos 2333 4.3 18:29:52 10° NNW 18:35:33 57° NE 18:35:33 57° NE
COSMO-SKYMED 1 2.7 18:36:23 51° N 18:37:20 70° WNW 18:41:39 10° SSW
USA 306 3.7 18:35:28 10° WNW 18:39:32 45° SSW 18:39:52 44° SSW
USA 267 3.2 18:37:47 48° ENE 18:39:52 86° NNW 18:46:26 10° WSW
MOS 1-B Rocket 4.4 18:34:24 10° N 18:40:17 64° WNW 18:46:59 10° SSW
Meteor 2-15 Rocket 4.4 18:38:08 10° SSW 18:44:16 80° WNW 18:50:07 11° N
Meteor 1-27 Rocket 3.5 18:39:59 10° S 18:45:30 84° E 18:46:30 61° NNE
YAOGAN 1 3.8 18:48:29 33° NNW 18:48:29 33° NNW 18:50:55 10° NNW
Cosmos 836 Rocket 4.4 18:42:59 10° SSW 18:48:18 86° ESE 18:48:20 86° E
Cosmos 2360 Rocket 2.2 18:42:54 10° NNW 18:48:37 82° WSW 18:50:08 51° SSE
USA 307 4.2 18:56:07 10° WNW 18:59:35 36° SW 18:59:35 36° SW
Lacrosse 5 rocket 4.2 18:59:57 10° W 19:01:52 13° SW 19:03:50 10° SSW
Cosmos 2322 Rocket 3.5 19:05:49 10° NW 19:11:03 39° WSW 19:16:17 10° S
COSMOS 2428 3.7 19:07:18 10° NNW 19:10:45 36° N 19:10:45 36° N
NOSS 3-4 (A) 3.6 19:09:32 10° NW 19:16:19 80° NE 19:16:19 80° NE
NOSS 3-4 (C) 3.6 19:09:38 10° NW 19:16:24 79° NE 19:16:24 79° NE
Okean O Rocket 3.9 19:14:53 10° SSW 19:18:27 23° W 19:22:03 10° NW
ATLAS 2AS CENTAUR R/B 3.2 19:12:17 10° NW 19:18:44 49° N 19:18:44 49° N
Cosmos 1867 4.3 19:15:17 10° SW 19:19:10 48° SW 19:19:10 48° SW
GEOS 3 Rocket 4.2 19:23:02 54° WNW 19:23:02 54° WNW 19:27:12 10° NW
ATLAS CENTAUR R/B 4.1 19:19:21 10° NNW 19:20:20 14° NNW 19:20:20 14° NNW
ATLAS CENTAUR R/B 4.1 19:24:02 10° W 19:27:07 24° WNW 19:27:07 24° WNW
SL-16 R/B 4.5 19:27:06 10° NW 19:31:18 22° W 19:35:29 10° SSW
Cosmos 2237 Rocket 4.2 19:29:16 10° NNW 19:30:53 18° NNW 19:30:53 18° NNW
Cosmos 2082 Rocket 4.1 19:33:22 10° W 19:37:37 21° NW 19:38:48 20° NNW
Cosmos 2333 Rocket 3.5 19:46:29 10° NW 19:50:07 37° WNW 19:50:07 37° WNW
Cosmos 2219 Rocket 3.9 19:54:05 10° NW 19:56:49 29° NW 19:56:49 29° NW
USA 267 4.4 20:25:08 37° WNW 20:25:08 37° WNW 20:29:04 10° W
